Forside
METAR-TAF:

METAR-TAF

Lufthavne :

Rusk_County_Airport

Ladysmith, Wisconsin, USA

Breddekreds: 45-29-48N, længdekreds: 091-00-01W, højde: 377 m

Aktuelle vejr

Denne rapport blev lavet for 16 minutter siden, kl. 00:35 UTC
Vind 7 kt fra vestnordvest
Temperatur 15°C
Fugtighed 55%
Tryk 1013 hPa
Sigt: 16.1 km

METAR: KRCX 220035Z AUTO 30007KT 10SM 15/06 A2990 RMK AO2 T01500062

Tid: 19:51 (00:51 UTC)


TAF: fraværende

Vejrobservationer og prognoser fra mere end 4000 lufthavne (METAR og TAF).

De gule og røde prikker repræsenterer de meteorologiske stationer.

Flyt musen over at se navnet på stationen.

Så klik over at se vejr observationer og prognoser.

At skifte det kort: Klik på de grønne knapper med et sort kors for at zoome ind; på den grønne knap med en bindestreg for at zoome ud; eller på de grønne pile for tilstødende kort.


METAR-TAF: